TimeCST,TemperatureF,Dew PointF,Humidity,Sea Level PressureIn,VisibilityMPH,Wind Direction,Wind SpeedMPH,Gust SpeedMPH,PrecipitationIn,Events,Conditions,WindDirDegrees,DateUTC
12:15 AM,37.4,35.6,93,29.87,7.0,Calm,Calm,-,N/A,,Clear,0,2012-12-02 06:15:00
12:35 AM,35.6,32.0,87,29.87,7.0,Calm,Calm,-,N/A,,Clear,0,2012-12-02 06:35:00
12:55 AM,33.8,30.2,87,29.88,4.0,NNE,3.5,-,N/A,,Clear,20,2012-12-02 06:55:00
1:15 AM,30.2,28.4,93,29.88,3.0,Calm,Calm,-,N/A,,Clear,0,2012-12-02 07:15:00
1:35 AM,33.8,30.2,87,29.89,7.0,Calm,Calm,-,N/A,,Clear,0,2012-12-02 07:35:00
1:55 AM,37.4,32.0,81,29.89,7.0,NE,6.9,-,N/A,,Clear,40,2012-12-02 07:55:00
2:15 AM,37.4,30.2,75,29.90,7.0,ENE,5.8,-,N/A,,Clear,60,2012-12-02 08:15:00
2:35 AM,35.6,30.2,81,29.90,7.0,East,3.5,-,N/A,,Clear,80,2012-12-02 08:35:00
2:55 AM,35.6,30.2,81,29.91,7.0,ENE,6.9,-,N/A,,Clear,70,2012-12-02 08:55:00
3:15 AM,33.8,28.4,81,29.91,7.0,ENE,6.9,-,N/A,,Clear,70,2012-12-02 09:15:00
3:35 AM,35.6,28.4,75,29.91,7.0,East,6.9,-,N/A,,Clear,80,2012-12-02 09:35:00
3:55 AM,32.0,28.4,87,29.92,7.0,East,3.5,-,N/A,,Clear,90,2012-12-02 09:55:00
4:15 AM,32.0,28.4,87,29.92,7.0,ENE,4.6,-,N/A,,Clear,70,2012-12-02 10:15:00
4:35 AM,33.8,28.4,81,29.92,7.0,ENE,4.6,-,N/A,,Clear,70,2012-12-02 10:35:00
4:55 AM,33.8,28.4,81,29.91,7.0,East,4.6,-,N/A,,Clear,80,2012-12-02 10:55:00
5:15 AM,33.8,28.4,81,29.92,7.0,East,3.5,-,N/A,,Clear,100,2012-12-02 11:15:00
5:35 AM,32.0,26.6,80,29.93,7.0,East,4.6,-,N/A,,Clear,100,2012-12-02 11:35:00
5:55 AM,30.2,26.6,86,29.94,7.0,East,3.5,-,N/A,,Clear,100,2012-12-02 11:55:00
6:15 AM,30.2,26.6,86,29.94,7.0,Calm,Calm,-,N/A,,Clear,0,2012-12-02 12:15:00
6:35 AM,30.2,26.6,86,29.95,7.0,SSE,3.5,-,N/A,,Clear,150,2012-12-02 12:35:00
6:55 AM,32.0,26.6,80,29.96,7.0,Calm,Calm,-,N/A,,Clear,0,2012-12-02 12:55:00
7:15 AM,32.0,26.6,80,29.95,7.0,Calm,Calm,-,N/A,,Clear,0,2012-12-02 13:15:00
7:35 AM,32.0,26.6,80,29.96,7.0,East,4.6,-,N/A,,Clear,90,2012-12-02 13:35:00
7:55 AM,30.2,26.6,86,29.98,5.0,East,5.8,-,N/A,,Clear,90,2012-12-02 13:55:00
8:15 AM,30.2,26.6,86,29.98,5.0,SE,4.6,-,N/A,,Haze,140,2012-12-02 14:15:00
8:35 AM,33.8,26.6,75,29.98,7.0,SSE,4.6,-,N/A,,Clear,150,2012-12-02 14:35:00
8:55 AM,33.8,26.6,75,29.97,7.0,South,5.8,-,N/A,,Clear,170,2012-12-02 14:55:00
9:15 AM,33.8,28.4,81,29.99,7.0,SSE,4.6,-,N/A,,Clear,160,2012-12-02 15:15:00
9:35 AM,35.6,28.4,75,29.99,7.0,South,5.8,-,N/A,,Clear,170,2012-12-02 15:35:00
9:55 AM,37.4,30.2,75,29.98,7.0,SE,4.6,-,N/A,,Clear,130,2012-12-02 15:55:00
10:15 AM,39.2,33.8,81,29.97,7.0,SSE,5.8,-,N/A,,Clear,150,2012-12-02 16:15:00
10:35 AM,44.6,35.6,71,29.97,7.0,South,9.2,-,N/A,,Clear,170,2012-12-02 16:35:00
10:55 AM,46.4,35.6,66,29.95,10.0,SSE,8.1,-,N/A,,Clear,160,2012-12-02 16:55:00
11:15 AM,48.2,37.4,66,29.94,10.0,South,10.4,-,N/A,,Clear,170,2012-12-02 17:15:00
11:35 AM,50.0,37.4,62,29.94,10.0,SSE,8.1,-,N/A,,Clear,160,2012-12-02 17:35:00
11:55 AM,51.8,37.4,58,29.92,10.0,South,11.5,-,N/A,,Clear,170,2012-12-02 17:55:00
12:15 PM,53.6,37.4,54,29.92,10.0,South,11.5,-,N/A,,Clear,190,2012-12-02 18:15:00
12:35 PM,55.4,39.2,54,29.91,10.0,SSW,15.0,-,N/A,,Clear,200,2012-12-02 18:35:00
12:55 PM,55.4,39.2,54,29.90,10.0,South,13.8,-,N/A,,Clear,190,2012-12-02 18:55:00
1:15 PM,55.4,37.4,51,29.89,10.0,South,10.4,16.1,N/A,,Clear,170,2012-12-02 19:15:00
1:35 PM,57.2,37.4,48,29.87,10.0,South,11.5,-,N/A,,Clear,180,2012-12-02 19:35:00
1:55 PM,57.2,39.2,51,29.86,10.0,South,10.4,-,N/A,,Clear,170,2012-12-02 19:55:00
2:15 PM,59.0,37.4,45,29.83,10.0,South,13.8,-,N/A,,Clear,180,2012-12-02 20:15:00
2:35 PM,60.8,37.4,42,29.83,10.0,South,12.7,-,N/A,,Clear,180,2012-12-02 20:35:00
2:55 PM,60.8,37.4,42,29.84,10.0,South,10.4,13.8,N/A,,Clear,180,2012-12-02 20:55:00
3:15 PM,59.0,37.4,45,29.84,10.0,South,13.8,-,N/A,,Clear,180,2012-12-02 21:15:00
3:35 PM,59.0,37.4,45,29.84,10.0,South,9.2,-,N/A,,Clear,170,2012-12-02 21:35:00
3:55 PM,57.2,37.4,48,29.83,10.0,SSE,8.1,-,N/A,,Clear,160,2012-12-02 21:55:00
4:15 PM,55.4,37.4,51,29.82,10.0,SSE,9.2,-,N/A,,Clear,150,2012-12-02 22:15:00
4:35 PM,55.4,37.4,51,29.82,10.0,SSE,8.1,-,N/A,,Clear,160,2012-12-02 22:35:00
4:55 PM,53.6,37.4,54,29.81,10.0,SSE,8.1,-,N/A,,Clear,160,2012-12-02 22:55:00
5:15 PM,53.6,37.4,54,29.81,10.0,South,9.2,-,N/A,,Clear,170,2012-12-02 23:15:00
5:35 PM,51.8,39.2,62,29.80,10.0,South,9.2,-,N/A,,Clear,170,2012-12-02 23:35:00
5:55 PM,51.8,39.2,62,29.80,10.0,SSE,9.2,-,N/A,,Clear,160,2012-12-02 23:55:00
6:15 PM,50.0,39.2,66,29.81,10.0,SSE,9.2,-,N/A,,Clear,160,2012-12-03 00:15:00
6:35 PM,48.2,39.2,71,29.81,10.0,South,10.4,-,N/A,,Clear,170,2012-12-03 00:35:00
6:55 PM,48.2,39.2,71,29.80,10.0,SSE,9.2,-,N/A,,Clear,160,2012-12-03 00:55:00
7:15 PM,46.4,39.2,76,29.80,10.0,SSE,11.5,16.1,N/A,,Clear,160,2012-12-03 01:15:00
7:35 PM,46.4,37.4,71,29.79,10.0,South,11.5,-,N/A,,Clear,170,2012-12-03 01:35:00
7:55 PM,46.4,37.4,71,29.79,10.0,South,9.2,-,N/A,,Clear,180,2012-12-03 01:55:00
8:15 PM,46.4,39.2,76,29.78,10.0,SSE,11.5,-,N/A,,Clear,160,2012-12-03 02:15:00
8:35 PM,46.4,39.2,76,29.77,10.0,South,11.5,-,N/A,,Clear,170,2012-12-03 02:35:00
8:55 PM,44.6,39.2,81,29.77,10.0,South,9.2,-,N/A,,Clear,180,2012-12-03 02:55:00
9:15 PM,44.6,37.4,76,29.77,10.0,South,10.4,-,N/A,,Clear,170,2012-12-03 03:15:00
9:35 PM,44.6,37.4,76,29.77,10.0,SSE,8.1,-,N/A,,Clear,160,2012-12-03 03:35:00
9:55 PM,44.6,37.4,76,29.76,7.0,SSE,8.1,-,N/A,,Clear,160,2012-12-03 03:55:00
10:15 PM,44.6,37.4,76,29.75,7.0,SSE,9.2,-,N/A,,Clear,150,2012-12-03 04:15:00
10:35 PM,44.6,39.2,81,29.75,7.0,SE,6.9,-,N/A,,Clear,140,2012-12-03 04:35:00
10:55 PM,44.6,39.2,81,29.75,7.0,SSE,6.9,-,N/A,,Clear,150,2012-12-03 04:55:00
11:15 PM,44.6,39.2,81,29.75,7.0,SSE,8.1,-,N/A,,Clear,150,2012-12-03 05:15:00
11:35 PM,44.6,37.4,76,29.74,7.0,SSE,5.8,-,N/A,,Clear,150,2012-12-03 05:35:00
11:55 PM,42.8,39.2,87,29.73,7.0,SSE,9.2,-,N/A,,Clear,150,2012-12-03 05:55:00